sat.trackr.live / text

‹ back to catalog

GJZ 05

NORAD 62294 · 2024-238E

PAYLOAD ACTIVE UNKNOWN

§ Identity

Operator
Country
PRC
Launch date
2024-12-12
Launch site
JSC
Launch vehicle
Mass (kg)
RCS (m²)

External: N2YO · Heavens-Above · Gunter

§ Orbital elements

Epoch: 2026-09-22T22:01:01.972416Z

Period
104.71 min
Inclination
59.9142°
Eccentricity
0.0022776
Mean motion
13.75198760 rev/d
Perigee alt
964.2 km
Apogee alt
997.7 km
Semi-major
7,359.1 km
B*
5.2124e-5
RAAN
335.1620°
Arg perigee
70.5125°
Mean anomaly
289.8340°
Rev number
8,935

§ Raw data

GJZ 051 62294U 24238E   26265.91738394 -.00000069  00000+0  52124-4 0  99902 62294  59.9142 335.1620 0022776  70.5125 289.8340 13.75198760 89355

JSON: /api/v1/satellites/62294 · /tle

For live sub-satellite position, see the globe view (requires WebGL).

§ Visibility from observer

Set your observer location to see the next 7 days of passes ≥ 10°. The values pass through the URL so the page stays shareable.

No JS? Fill the form by hand. The geolocation button needs JavaScript.